OBJECT B

Satellite information

Favourite Embed

Satellite Type and Status

UNKNOWNIN ORBIT

Key statistics

Satellite OBJECT B at a glance.

Uptime

313

Days in orbit

Revolutions

≈ 15.2

Per day

Orbit

SSO

Sun Synchronous Orbit

Inclination

97.6

Latest

Satellite identification and parameters

Extended collection of information and parameters for OBJECT B.

Object identification

Identified? True

Debris? False

Object name: OBJECT B

International designator: 2024-153B

Object number (NORAD): 60746

Object ID (CCSDS): 60746

Country: PEOPLES REPUBLIC OF CHINA (PRC)

Current information (Y/N): Y

RCS size: MEDIUM

Orbital parameters

Period: 94.616 minutes

Inclination: 97.6413 deg

SMA: 6878.121 km

Apoapsis: 507.777 km

Periapsis: 492.196 km

RAAN: 314.1239 deg

Eccentricy: 0.0011326

Argument of periapsis: 290.8651 deg

Mean anomaly: 69.1371 deg

Mean motion: 15.21941667 rev/day

Mean motion (dot): 0.00007989 rev/day2

B* drag term: 0.00035301 1/REarth

Two-line elements (TLE)

Creation date: July 8, 2025, 2:27 a.m.

Reference frame: TEME

Reference center: EARTH

Epoch: July 7, 2025, 9:25 p.m. UTC

TLE line 0: 0 OBJECT B

TLE line 1: 1 60746U 24153B 25188.89300680 .00007989 00000-0 35301-3 0 9994

TLE line 2: 2 60746 97.6413 314.1239 0011326 290.8651 69.1371 15.21941667 47394

Live tracking on map

Real-time ground track for satellite OBJECT B.

In-orbit conjunctions

There are no conjunctions computed for OBJECT B, at the moment. Check back to stay up to date, as we update our databases every day.

Go to all conjunctions

Associated space launch

Carried 6 satellites to sun synchronous orbit: * Yunyao-1 15 to 17 * Jitianxing A-03 * Suxing 1-01 * Tianfu Gaofen 2

OBJECT B was lifted into orbit during the mission ‘Ceres-1S | 6 satellites’, on board a Ceres-1S space rocket.

The launch took place on Aug. 29, 2024, 5:22 a.m. from Haiyang Spaceport.

For more information about the launch, click the button.

Launch to space Ceres-1S | 6 satellites
Ceres-1S | 6 satellites

Agency: N/A

Status: Launch Successful

Launch date: Aug. 29, 2024, 5:22 a.m. UTC

Rocket: Ceres-1S

Launch pad: Haiyang Spaceport

Location: Sea Launch

...

Latest news about this satellite

News about space launch
Polaris Dawn on hold; SpaceX booster fails on landing

Another busy week of spaceflight activities contained a landing failure of a Falcon 9 booster for the first time in over three years. Looking forward, Falcon 9 could launch up to five launches this week, including the Polaris Dawn mission, whose private c...

News about space launch
Galactic Energy launches six satellites with third sea launch

HELSINKI — China’s Galactic Energy conducted its third Ceres-1 solid rocket sea launch Thursday, successfully sending six satellites into orbit. The Ceres-1 lifted off from a transport erector launcher on […]

News about space launch
Launch Roundup: Falcon Heavy returns with GOES-U, Firefly Alpha launch attempt

Following a week in which Tropical Storm Alberto brought high seas, wind, and rain-related delays to the launch schedule in Florida, SpaceX managed to get back on track this week with launches from all three of the active Falcon launch pads, including a F...


Newsletter sign-up

Weekly statistics, charts and insights to help you stay on top of the space industry.